Hourly Data Report for October 24, 2014

All times are specified in Local Standard Time (LST). Add 1 hour to adjust for Daylight Saving Time where and when it is observed.

MONCTON INTL A
NEW BRUNSWICK

46°06'44.000" N
64°40'43.000" W
70.70 m
8103201
71705
YQM

Download Data

Hourly Data (October 2014)
Hourly Data Report for October 24, 2014
Temp Definition
°C
Dew Point Temp Definition
°C
Rel Hum Definition
%
Wind Dir Definition
10's deg

Wind Spd Definition
km/h
Visibility Definition
km
Stn Press Definition
kPa
Hmdx Definition


Wind Chill Definition


Weather Definition


TIME
00:00 Legend Double Dagger 9.5 8.4 93 3 31 12.9 100.19     Rain
01:00 Legend Double Dagger 9.5 8.4 93 4 35 16.1 100.06     Rain
02:00 Legend Double Dagger 9.5 8.6 94 3 35 12.9 99.95     Rain
03:00 Legend Double Dagger 9.6 8.7 94 4 41 12.9 99.80     Rain
04:00 Legend Double Dagger 9.8 9.0 95 4 38 12.9 99.74     Rain
05:00 Legend Double Dagger 9.8 9.0 95 4 39 16.1 99.67     Rain
06:00 Legend Double Dagger 9.5 8.8 95 4 35 2.4 99.67     Moderate Rain,Fog
07:00 Legend Double Dagger 9.6 8.8 95 2 28 3.2 99.64     Rain,Fog
08:00 Legend Double Dagger 9.5 8.8 95 2 21 1.6 99.65     Rain,Fog
09:00 Legend Double Dagger 9.7 8.9 95 2 38 3.2 99.47     Rain,Fog
10:00 Legend Double Dagger 10.1 9.3 95 3 30 4.0 99.50     Rain,Fog
11:00 Legend Double Dagger 10.5 9.6 94 3 31 16.1 99.47     Cloudy
12:00 Legend Double Dagger 10.4 9.6 95 2 23 2.0 99.40     Rain Showers,Fog
13:00 Legend Double Dagger 10.1 9.3 95 36 31 2.4 99.30     Rain Showers,Fog
14:00 Legend Double Dagger 10.2 9.4 95 36 23 2.4 99.24     Drizzle,Fog
15:00 Legend Double Dagger 10.0 9.2 95 36 28 2.4 99.16     Drizzle,Fog
16:00 Legend Double Dagger 9.8 9.2 96 36 19 2.0 99.16     Drizzle,Fog
17:00 Legend Double Dagger 9.5 8.9 96 36 23 2.0 99.13     Drizzle,Fog
18:00 Legend Double Dagger 9.5 8.9 96 36 23 2.0 99.11     Drizzle,Fog
19:00 Legend Double Dagger 9.2 8.6 96 36 28 2.0 99.04     Drizzle,Fog
20:00 Legend Double Dagger 9.0 8.4 96 36 27 3.2 99.07     Drizzle,Fog
21:00 Legend Double Dagger 8.9 8.3 96 36 24 24.1 99.07     Drizzle,Fog
22:00 Legend Double Dagger 8.8 8.2 96 35 25 3.2 99.03     Drizzle,Fog
23:00 Legend Double Dagger 8.5 7.8 95 35 24 3.2 99.01     Drizzle,Fog

Notes on Data Quality.

Legend

  • E = Estimated
  • M = Missing
  • NA = Not Available
  • ‡ = Partner data that is not subject to review by the National Climate Archives
Date modified: